This is the latest recevied weather packets stored in our database for station/object AD5L. If no packets are shown the sender has not sent any weather packets the latest 10 day(s).
| Time | Temp. | Humidity | Pressure | Rain* | Wind** | Luminosity | Snow |
|---|---|---|---|---|---|---|---|
| 1777223010 | 27.78° C | 78% | 1009.9 hPa | 0 mm | - | - | - |
| 1777222419 | 27.78° C | 79% | 1010 hPa | 0 mm | - | - | - |
| 1777221806 | 26.67° C | 81% | 1010 hPa | 0 mm | - | - | - |
| 1777221215 | 27.22° C | 80% | 1010.2 hPa | 0 mm | - | - | - |
| 1777220604 | 27.22° C | 81% | 1010.2 hPa | 0 mm | - | - | - |
| 1777220011 | 26.67° C | 82% | 1010.1 hPa | 0 mm | - | - | - |
| 1777219418 | 26.67° C | 83% | 1010.3 hPa | 0 mm | - | - | - |
| 1777218804 | 26.11° C | 84% | 1010 hPa | 0 mm | - | - | - |
| 1777218214 | 26.11° C | 84% | 1010 hPa | 0 mm | - | - | - |
| 1777217610 | 25.56° C | 86% | 1009.8 hPa | 0 mm | - | - | - |
| 1777217017 | 25.56° C | 86% | 1009.8 hPa | 0 mm | - | - | - |
| 1777216421 | 25° C | 88% | 1009.7 hPa | 0 mm | - | - | - |
| 1777215810 | 25° C | 88% | 1009.8 hPa | 0 mm | - | - | - |
| 1777215217 | 24.44° C | 89% | 1009.6 hPa | 0 mm | - | - | - |
| 1777214609 | 24.44° C | 90% | 1009.5 hPa | 0 mm | - | - | - |
| 1777214021 | 24.44° C | 90% | 1009.6 hPa | 0 mm | - | - | - |
| 1777213408 | 24.44° C | 91% | 1009.6 hPa | 0 mm | - | - | - |
| 1777212802 | 23.89° C | 91% | 1009.4 hPa | 0 mm | - | - | - |
| 1777212212 | 23.89° C | 92% | 1009.6 hPa | 0 mm | - | - | - |
| 1777211606 | 23.33° C | 92% | 1009.5 hPa | 0 mm | - | - | - |
| 1777211009 | 23.33° C | 92% | 1009.6 hPa | 0 mm | - | - | - |
| 1777210420 | 23.33° C | 92% | 1009.4 hPa | 0 mm | - | - | - |
| 1777209831 | 23.33° C | 92% | 1009.4 hPa | 0 mm | - | - | - |
| 1777209220 | 23.33° C | 92% | 1009.3 hPa | 0 mm | - | - | - |
| 1777208626 | 23.33° C | 92% | 1008.9 hPa | 0 mm | - | - | - |
* Rain latest hour (hover to see other rain measurements)
** Current wind speed in m/s (hover to see current wind gust speed)